Other Public Products
Issued by NWS Grand Forks, ND

Home | Current Version | Previous Version | Text Only | Print | Product List | Glossary On
Versions: 1 2 3 4 5 6 7 8 9 10 11 12 13 14 15 16 17 18 19 20 21 22 23 24 25 26 27 28 29 30 31 32 33 34 35 36 37 38 39 40 41 42 43 44 45 46 47 48 49 50
000
FPUS83 KFGF 240431
OPUFGF
PRAIRIE TO PINES WEATHER ROUNDUP
NATIONAL WEATHER SERVICE EASTERN NORTH DAKOTA/GRAND FORKS ND
1100 PM CDT FRI JUN 23 2017

 **SATELLITE DATA USED TO AUGMENT SKY COVER AT AUTOMATED STATIONS**
 *****  WEATHER ACROSS EASTERN NORTH DAKOTA  *****

CITY           SKY/WX    TMP DP  RH WIND       PRES   REMARKS
GRAND FORKS    CLOUDY    56  42  59 NW10      29.98R
GRAND FORKS AF MOCLDY    55  40  59 NW12      29.99R
GRAND CITY NWS NOT AVBL
BUXTON           N/A     56  42  59 NW13        N/A
DEVILS LAKE    FAIR      50  40  68 W9        30.03S
FARGO          CLOUDY    58  41  53 NW16      30.01R
WAHPETON ARPT  MOCLDY    54  37  54 NW9       30.02R
$$

 *****  WEATHER ACROSS CENTRAL AND WESTERN NORTH DAKOTA  *****

CITY           SKY/WX    TMP DP  RH WIND       PRES   REMARKS
JAMESTOWN      FAIR      51  39  63 NW9       30.05S
BISMARCK       FAIR      55  36  48 W5        30.11S
MINOT          FAIR      52  37  56 W7        30.07R
MINOT AFB      LGT RAIN  52  41  66 NW14G24   30.07R
GARRISON         N/A     52  37  56 NW7       30.09S
WILLISTON      CLOUDY    56  39  53 W7        30.14R
DICKINSON      CLOUDY    49  32  52 W6        30.14R
HETTINGER      MOCLDY    47  31  53 CALM      30.19R
$$

 *****  OTHER OBSERVATIONS NORTHEAST NORTH DAKOTA  *****

CITY           SKY/WX    TMP DP  RH WIND       PRES   REMARKS
WALHALLA       NOT AVBL
LANGDON        CLOUDY    48  45  87 W9        30.00S
CAVALIER       CLOUDY    55  41  58 W13       29.96S
GRAFTON        CLOUDY    55  43  62 W12       29.99S
CANDO          NOT AVBL
FORT TOTTEN      N/A     54  40  59 NW7       29.95S
ROLLA            N/A     48  41  76 W9        30.02S
RUGBY          NOT AVBL
 ***** THE ABOVE OBSERVATIONS ARE NON NWS ARE NOT QUALITY
        CONTROLLED AND MAY MIS-REPORT RAIN FOR SNOW...
$$

 *****  OTHER OBSERVATIONS SOUTHEAST NORTH DAKOTA *****

CITY           SKY/WX    TMP DP  RH WIND       PRES   REMARKS
COOPERSTOWN    FAIR      50  41  71 NW9       30.03F
VALLEY CITY    FAIR      50  39  66 NW9       30.06S
OAKES          NOT AVBL
GWINNER        CLEAR     54  39  58 NW8       30.06S
SHEYENNE NWR     N/A     59  40  49 NW10      29.95
BUFFALO          N/A     53  33  45 NW7         N/A
WYNDMERE       NOT AVBL
 ***** THE ABOVE OBSERVATIONS ARE NON NWS ARE NOT QUALITY
       CONTROLLED AND MAY MIS-REPORT RAIN FOR SNOW...
$$

  *****  WEATHER ACROSS NORTHERN MINNESOTA  *****

CITY           SKY/WX    TMP DP  RH WIND       PRES   REMARKS
FLAG ISLAND    CLOUDY    54  50  87 W16       29.87S
WARROAD        CLOUDY    54  48  82 W8        29.91S
ROSEAU           N/A     55  48  76 W7        29.91F
HALLOCK        CLOUDY    55  43  62 W8        29.95S
THF RVR FALLS  CLOUDY    54  41  61 NW9       29.97R
HALSTAD          N/A     56  39  53 NW10        N/A
FOSSTON        CLOUDY    50  39  66 W8        29.97F
BAUDETTE       CLOUDY    54  48  80 W10       29.88F
WASKISH        CLOUDY    55  46  71 W14       29.91S
CROOKSTON      CLOUDY    55  43  62 NW9       29.98S
$$
  *****  WEATHER ACROSS CENTRAL AND WEST MINNESOTA  *****

CITY           SKY/WX    TMP DP  RH WIND       PRES   REMARKS
BEMIDJI        MOCLDY    51  47  84 W7        29.94S
PARK RAPIDS    MOCLDY    55  43  63 NW10      29.96R
WADENA         CLOUDY    55  41  58 NW8       29.97R
DETROIT LAKES  MOCLDY    54  41  62 NW9       30.00S
MOORHEAD       MOCLDY    57  39  51 NW14G21   30.02R
FERGUS FALLS   FAIR      54  43  66 NW10      29.99R
ELBOW LAKE     FAIR      54  42  64 W10       30.01S
MORRIS MN      FAIR      57  43  58 NW9       30.01R
STAPLES        MOCLDY    55  43  62 NW12G17   29.96R
WHEATON        MOCLDY    57  41  54 W8        30.04S
$$
  *****  WEATHER ELSEWHERE ACROSS MINNESOTA  *****

CITY           SKY/WX    TMP DP  RH WIND       PRES   REMARKS
DULUTH         MOCLDY    54  50  86 NW13G22   29.85R
INTRNTL FALLS  CLOUDY    53  50  89 W8        29.86R
ELY            LGT RAIN  54  52  94 NW8       29.83S
CLOQUET        FAIR      55  46  71 W8        29.88R
BRAINERD       FAIR      56  47  71 NW6       29.95R
HIBBING        CLOUDY    53  48  83 NW15G24   29.88R
ALEXANDRIA     CLOUDY    59  43  55 NW10G22   29.99R
SAINT CLOUD    FAIR      59  47  64 W9        29.95R
MINNEAPOLIS    MOCLDY    64  48  56 NW17G23   29.93R
$$

  *****  WEATHER ACROSS SOUTH DAKOTA  *****

CITY           SKY/WX    TMP DP  RH WIND       PRES   REMARKS
SIOUX FALLS    FAIR      54  44  69 W7        30.08R
BROOKINGS      FAIR      51  42  71 NW8       30.07R
WATERTOWN      FAIR      56  42  59 NW13      30.06R
HURON          FAIR      50  44  80 NW5       30.10R
SISSETON         N/A     56  41  57 W10       30.03R
ABERDEEN       FAIR      53  40  61 NW9       30.10R
MITCHELL       FAIR      58  40  51 W6        30.11R
PIERRE         FAIR      56  38  50 N8        30.13R
MOBRIDGE       FAIR      52  38  58 N6        30.11R
RAPID CITY     FAIR      49  28  44 NW10      30.23R
$$

  *****  SOME WEATHER IN NEARBY STATES *****

CITY           SKY/WX    TMP DP  RH WIND       PRES   REMARKS
GLASGOW MT     FAIR      57  29  34 NW5       30.19R
GREAT FALLS MT CLOUDY    60  37  42 NE7       30.30R
CHEYENNE WY    FAIR      55  43  63 SW6       30.35R
SCOTTSBLUFF NE FAIR      55  32  41 NE7       30.26R
OMAHA NE       FAIR      65  48  54 W8        30.08R
DES MOINES IA  FAIR      67  50  54 NW10      30.02R
DAVENPORT IA   FAIR      62  56  80 W8        29.93R
CHICAGO IL     FAIR      69  53  56 NW13      29.83R
EAU CLAIRE WI  CLOUDY    62  52  69 NW14      29.86S
LA CROSSE WI   FAIR      68  55  63 W12       29.87R
$$

  *****  SOME NATIONAL WEATHER *****

CITY           SKY/WX    TMP DP  RH WIND       PRES   REMARKS
LA GUARDIA NY  MOCLDY    82  74  76 SW10      29.62S
RALEIGH NC     FAIR      82  74  76 S18G26    29.86F
ATLANTA GA     FAIR      73  72  96 SW7       29.99F
NEW ORLEANS LA MOCLDY    81  78  91 S7        29.97R
OKLAHOMA CITY  MOCLDY    76  54  46 NE17      30.05R THUNDER
ALBUQUERQUE NM FAIR      78  53  41 E28G36    30.13R
SALT LAKE CITY FAIR      78  41  26 W3        30.13R
LOS ANGELES CA CLOUDY    63  61  93 W10       29.92R
BOISE ID       FAIR      74  32  21 W5        30.11R
SEATTLE WA     FAIR      71  50  47 N7        30.14S
$$

*** WEATHER ACROSS MANITOBA...SASKATCHEWAN AND ONTARIO ***
                ***ONTARIO***

CITY           SKY/WX    TMP DP  RH WIND       PRES   REMARKS
GERALDTON      PTCLDY    52  50  93 NW2       29.70S
THUNDER BAY    MOCLDY    57  54  88 CALM      29.73R
SIOUX LOOKOUT  LGT RAIN  55  54  94 NW8       29.77R
TORONTO        MOCLDY    68  59  73 W9        29.62R
BIG TROUT LK   CLEAR     48  45  87 N7        29.82R
PICKLE LAKE    NOT AVBL
DRYDEN         LGT RAIN  54  52  94 W6        29.80R
KENORA         LGT RAIN  54  50  87 NW8G17    29.85S
$$
                *** MANITOBA***

CITY           SKY/WX    TMP DP  RH WIND       PRES   REMARKS
BRANDON        MOCLDY    48  43  81 NW12      30.00R
DAUPHIN        PTCLDY    50  45  81 NW12      30.00R
ISLAND LAKE    PTCLDY    50  41  71 NE7       29.94R
PILOT MOUND      N/A     48  41  76 W7          N/A
THE PAS        LGT RAIN  48  46  93 N15       30.07R FOG
THOMPSON       MOCLDY    48  37  66 NE6       30.03
WINNIPEG       MOCLDY    52  48  87 W9        29.92S
LYNN LAKE      MOCLDY    48  37  66 NW6       30.10R
CHURCHILL      PTCLDY    48  36  61 SW2       30.02S
GILLAM         MOCLDY    50  39  66 NE6       30.02R
$$
                ***SASKATCHEWAN***

CITY           SKY/WX    TMP DP  RH WIND       PRES   REMARKS
ESTEVAN        LGT RAIN  48  43  81 NW12      30.12R
KINDERSLEY     PTCLDY    54  41  62 N7        30.19R
LLOYDMINSTER   PTCLDY    55  45  67 NW5       30.19R
PRINCE ALBERT  PTCLDY    45  39  81 CALM      30.21R
REGINA         MOCLDY    46  37  71 NW8       30.16R
YORKTON        CLOUDY    46  39  76 N18G28    30.09R



USA.gov is the U.S. government's official web portal to all federal, state and local government web resources and services.